Varjao, Brazil
Current Conditions -  °F | °C
As of 8:00 PM on Monday 24 Nov 2014 (Local Time) from SBGO Reporting Station
Few Clouds Few Clouds  
Wind Chill: 79°   Ceiling: Unl
Heat Index: 81°   Visibility: 6mi
Dew Point: 64°   Wind: 3mph
Humidity: 61%   Direction: 290°WNW
Pressure: 29.94"   Gusts: NA
Location:  17.05°S, 49.63°W
Report Text: SBGO 242200Z 29003KT 9999 FEW030 FEW035TCU 26/18 Q1014
Loading
Personal Weather Stations






























Interactive Weather Map New forecast layout! Learn more

10-Day Weather Forecast

Advertisements
Track Severe Weather on mobile